SCP
0 0 0 0 0 0 0 0 0 0 0 0 0 0 0 0 0 0 0 0 0 0 0 0 0 0 0 0 0 0 0 0 0 0 0 0 0 1 0 0 1 1 1
0 0 0 0 0 0 0 0 0 0 0 0 0 0 0 0 0 0 0 0 0 0 0 0 0 0 0 0 0 0 0 0 0 0 0 0 0 0 0 0 0 0 1
0 0 0 0 0 0 0 0 0 0 0 0 0 0 0 0 0 0 0 0 0 0 0 0 0 0 0 0 0 0 0 -0 0 0 0 0 0 0 0 0 0 1 1
0 0 0 0 0 0 0 0 0 0 0 0 0 0 0 0 0 0 0 0 0 0 0 0 0 0 0 0 0 0 -0 -0 -0 0 0 0 0 0 0 0 0 0 0
0 0 0 0 0 0 0 0 0 0 0 0 0 0 0 0 0 0 0 0 0 0 0 0 0 0 0 0 0 0 0 0 0 0 0 0 0 0 0 0 0 0 0
0 0 0 0 -0 0 0 0 0 0 0 0 0 0 0 0 0 0 0 0 0 0 0 0 -0 0 0 0 0 0 0 0 0 0 0 0 0 0 0 0 0 0 0
0 0 0 -0 -0 -0 0 0 0 0 0 0 0 0 0 0 0 0 0 0 0 0 0 0 0 0 0 0 0 0 0 0 0 0 0 0 0 0 0 0 0 0 0
0 0 -0 -0 -0 -0 0 0 0 0 0 0 0 0 0 0 0 0 0 0 0 0 -0 0 0 0 0 0 0 -0 -0 0 0 0 0 0 0 0 0 0 0 0 0
0 -0 -0 -0 -0 -0 -0 -0 0 0 0 0 0 0 0 0 0 0 0 0 -0 0 0 -0 0 0 0 0 0 -0 0 0 0 -0 0 0 0 0 0 1 0 0 0
0 -0 -0 -0 -0 -0 -0 -0 0 0 0 0 0 0 0 0 0 0 0 0 0 -0 -0 0 0 0 0 0 0 0 0 0 0 0 0 0 0 0 0 0 0 0 0
-0 -0 -0 -0 -0 -0 -0 -0 0 0 0 0 0 0 0 0 0 0 0 0 -0 -0 -0 0 0 0 0 0 0 0 -0 0 0 -0 0 0 0 0 0 0 0 0 0
-0 -0 -0 -0 -0 -0 -0 -0 0 0 0 0 0 0 0 0 0 0 0 0 -0 -0 -0 0 0 0 0 0 0 0 0 0 0 0 0 0 -0 0 0 0 0 0 0
-0 -0 -0 -0 -0 -0 -0 -0 0 0 0 0 0 0 0 0 0 -0 -0 -0 -0 -0 -0 0 0 -0 -0 0 0 0 0 0 0 0 0 0 -0 0 -0 0 0 0 0
-0 -0 -0 -0 -0 -0 -0 -0 0 0 0 0 0 0 0 0 0 0 -0 -0 -0 -0 0 0 -0 0 0 0 0 0 0 0 0 0 0 -0 -0 -0 -0 0 0 0 0
-0 -0 -0 -0 -0 -0 -0 -0 0 0 0 0 0 0 0 0 0 0 -0 0 -0 -0 -0 0 -0 0 0 0 0 0 0 0 0 0 0 0 0 0 0 0 0 0 0
-0 -0 -0 -0 -0 -0 -0 -0 -0 0 -0 0 0 0 0 -0 -0 -0 0 -0 -0 -0 -0 0 0 0 0 0 0 0 0 0 0 0 0 0 0 0 0 0 0 0 0
-0 -0 -0 -0 -0 -0 -0 -0 -0 -0 -0 0 0 0 0 0 -0 0 0 -0 -0 -0 0 -0 -0 0 -0 0 0 0 0 0 0 0 0 0 0 0 0 -0 -0 -0 0
-0 -0 -0 -0 -0 -0 -0 -0 -0 -0 -0 -0 0 0 0 0 0 0 0 0 0 -0 -0 -0 -0 0 0 0 0 0 0 0 0 0 0 0 -0 -0 0 0 0 0 0
-0 -0 -0 -0 -0 -0 -0 -0 -0 -0 -0 -0 -0 0 0 0 0 0 0 0 0 -0 0 0 -0 0 -0 -0 0 0 0 0 0 0 0 -0 -0 0 0 0 0 0 0
-0 -0 -0 -0 -0 -0 -0 -0 -0 -0 -0 -0 -0 -0 0 0 0 0 0 0 0 0 0 0 0 0 0 0 -0 0 0 0 0 0 0 0 0 0 0 0 0 -0 0
-0 -0 -0 -0 -0 -0 -0 -0 -0 -0 -0 -0 -0 -0 -0 0 0 0 0 0 0 0 0 0 0 0 0 0 -0 0 0 0 0 0 0 0 -0 0 0 0 0 -0 -0
-0 -0 -0 -0 -0 -0 -0 -0 -0 -0 -0 -0 -0 -0 -0 0 -0 0 0 0 0 0 0 0 0 0 0 0 0 -0 0 0 -0 -0 -0 -0 0 0 0 0 -0 -0 -0
0 -0 -0 -0 -0 -0 -0 -0 -0 -0 -0 -0 -0 -0 -0 0 0 -0 -0 0 0 0 0 0 0 0 0 0 0 0 0 0 0 0 -0 -0 -0 -0 0 -0 -0 -0 0
-0 0 -0 -0 -0 -0 -0 -0 -0 -0 -0 -0 -0 -0 -0 -0 -0 -0 -0 0 0 0 0 0 0 0 0 0 0 0 0 -0 -0 -0 0 -0 -0 -0 -0 0 0 -0 0
0 0 0 -0 -0 -0 -0 -0 -0 -0 -0 -0 -0 -0 -0 -0 -0 -0 0 0 0 0 0 0 0 0 0 0 0 0 0 0 -0 -0 -0 -0 -0 0 0 0 0 0 0
0 0 -0 0 -0 -0 -0 -0 -0 -0 -0 -0 -0 -0 -0 -0 -0 -0 -0 -0 -0 -0 -0 -0 -0 -0 -0 0 0 -0 0 -0 -0 0 0 0 0 0 0 0 0 -0 -0
Wind_Speed_500mb
72 57 40 36 32 33 39 54 69 63 54 43 37 30 24 21 25 30 31 32 32 30 29 27 23 28 28 26 24 24 24 26 24 25 21 17 16 17 17 22 18 20 20
46 33 26 24 24 25 44 61 64 57 44 35 28 22 18 22 21 26 24 21 18 22 26 23 20 25 26 24 23 25 28 27 25 21 21 15 15 15 19 22 20 21 23
35 21 19 16 22 36 50 62 56 44 35 28 22 18 17 16 19 17 13 12 15 17 20 18 18 21 21 20 19 21 31 28 28 24 16 16 14 18 15 16 17 21 20
26 19 15 16 27 35 55 57 48 37 29 24 20 14 12 12 12 10 10 13 13 14 10 13 18 16 15 15 15 22 29 28 32 29 19 17 18 13 13 15 13 18 19
13 14 16 19 31 54 60 50 39 31 27 24 17 9 7 9 9 8 12 15 12 8 6 11 11 10 12 13 19 28 30 26 28 28 25 20 20 21 17 17 23 17 17
5 16 24 35 53 62 55 44 36 30 26 21 15 4 6 6 9 12 15 16 11 9 11 10 11 12 12 15 20 24 25 22 20 23 28 18 15 17 14 27 28 27 20
18 29 40 56 69 63 51 42 35 28 23 21 12 3 4 6 12 13 16 8 7 10 15 15 13 12 11 15 19 23 22 18 15 19 29 19 9 15 14 26 35 37 33
27 36 46 55 65 57 48 40 32 25 23 20 10 3 3 9 13 11 7 2 11 17 20 17 13 13 14 15 16 20 21 19 16 18 16 19 10 18 20 27 44 39 31
35 43 50 61 60 53 45 38 30 26 25 18 11 5 3 9 10 6 10 7 16 24 21 20 15 17 16 17 15 17 17 17 16 18 18 13 8 19 15 16 32 38 26
38 46 56 61 56 47 43 33 28 25 22 15 11 6 5 8 4 11 8 9 17 25 23 21 17 13 14 13 11 15 20 13 19 22 15 10 15 26 22 28 30 18 22
45 51 55 60 52 48 44 33 32 27 21 14 10 6 3 6 5 4 4 10 17 22 24 22 15 13 13 10 9 17 17 12 19 17 13 13 20 31 25 22 25 25 34
44 51 53 57 54 50 43 34 31 26 19 13 10 6 1 4 5 6 11 14 17 20 22 23 16 11 12 11 15 17 16 18 21 18 13 17 24 27 25 18 29 33 34
45 50 51 55 53 50 42 35 30 25 19 12 12 9 3 3 6 9 11 13 18 19 22 21 15 11 12 16 16 17 18 19 22 19 22 26 26 34 20 28 31 36 41
48 53 54 53 51 49 42 36 31 26 21 15 14 10 5 5 15 13 16 19 21 22 23 24 23 20 19 21 20 17 20 23 23 23 24 21 20 24 26 26 32 34 44
50 56 58 55 54 50 43 37 33 30 24 18 14 10 9 11 19 16 20 21 22 24 25 27 26 21 20 23 26 25 24 26 30 29 27 28 28 27 23 25 34 34 50
51 54 56 57 57 52 47 42 36 34 28 20 15 13 13 17 21 17 22 21 25 28 28 25 23 24 26 29 30 23 21 26 31 33 34 29 27 29 26 28 38 33 48
56 60 63 65 59 54 50 47 40 38 32 25 18 18 19 22 27 21 20 22 22 22 20 19 20 22 24 26 19 17 17 23 31 38 39 37 31 32 28 30 31 44 50
55 59 65 67 57 53 50 47 43 41 36 31 23 24 22 24 27 21 21 20 20 18 13 12 18 22 21 18 14 11 12 23 35 38 40 38 41 37 42 54 59 58 55
61 63 65 65 58 57 54 52 48 45 41 37 30 31 27 29 28 23 21 20 22 21 18 17 22 25 28 14 11 18 25 36 38 38 42 45 46 47 40 51 58 40 38
58 59 63 66 60 59 58 56 53 50 48 41 36 33 33 31 29 23 23 23 29 30 27 32 29 27 29 27 25 24 32 37 45 43 54 48 50 45 37 37 40 44 48
60 57 62 71 67 63 62 61 58 54 49 43 40 35 37 33 29 25 23 23 29 30 28 29 32 29 30 31 32 27 32 40 45 47 46 51 45 35 32 40 43 45 46
61 61 65 71 72 67 64 64 64 53 50 47 46 40 39 37 35 30 28 28 29 32 31 30 30 31 32 31 34 37 40 47 54 54 57 46 37 34 39 40 37 36 40
59 68 70 74 76 74 68 66 59 59 55 51 50 46 41 44 39 36 34 32 31 33 34 32 33 34 33 34 36 39 40 37 46 52 47 38 33 34 37 39 40 37 38
56 70 76 79 80 82 74 60 59 60 60 57 53 53 47 50 47 41 37 35 35 35 34 32 32 35 37 37 37 38 41 41 40 39 35 31 32 34 36 39 41 36 30
52 71 81 85 87 84 81 75 65 66 66 61 57 58 54 50 54 48 46 43 36 33 35 35 34 36 37 36 34 35 37 38 38 36 34 35 36 39 42 42 41 38 31
51 68 80 82 85 85 83 79 74 70 68 68 64 63 61 57 54 56 49 45 40 34 30 26 27 32 30 32 33 33 32 32 33 37 39 39 39 40 43 44 44 42 37
Wind_Direction_500mb
291 294 288 276 265 250 229 212 204 192 194 206 221 228 239 254 274 281 281 279 274 269 266 273 259 235 230 228 235 240 235 217 209 200 203 211 204 214 223 217 212 216 208
287 294 283 264 245 231 209 201 189 187 195 209 215 221 237 260 278 286 288 283 270 262 274 267 248 226 220 226 237 240 224 205 196 190 176 168 179 201 210 207 211 212 203
281 291 282 257 223 207 198 181 176 185 195 201 204 214 245 269 294 297 302 286 280 284 275 249 228 206 219 230 234 233 205 197 188 179 174 165 178 170 181 189 207 198 185
268 270 251 221 204 190 170 171 175 183 188 191 194 215 259 279 291 299 298 298 293 298 274 216 197 205 222 224 218 194 188 197 188 180 185 179 164 169 160 161 179 170 155
261 237 207 180 169 167 168 170 176 178 183 185 192 222 280 284 309 307 307 310 293 277 193 166 191 206 202 195 188 185 189 193 196 195 187 176 175 168 160 152 154 155 171
204 165 157 155 158 164 167 172 173 175 182 183 186 223 285 294 321 309 314 307 272 212 188 171 164 170 175 184 178 179 189 194 205 210 184 147 158 171 175 162 164 161 172
153 155 158 154 161 165 170 170 171 176 176 176 177 197 322 333 323 318 322 297 217 169 154 145 157 152 165 167 174 179 181 195 196 186 189 208 178 224 205 170 161 159 159
162 162 160 161 163 168 171 169 169 169 168 169 168 164 50 347 340 329 349 186 166 155 146 146 140 136 148 160 169 183 190 190 186 184 183 167 209 215 195 185 169 154 149
165 164 165 166 169 172 172 167 163 160 163 161 159 130 50 8 353 45 64 104 152 152 151 156 140 143 145 147 150 170 177 183 184 184 192 211 224 178 174 198 180 173 136
164 165 169 172 173 173 168 161 158 155 161 159 151 144 40 21 36 62 72 99 145 155 161 163 155 155 161 159 157 162 172 190 186 182 195 176 156 152 149 158 163 144 171
165 167 172 176 173 173 167 161 161 161 166 160 165 157 44 23 51 53 63 146 148 159 171 166 162 161 174 170 161 158 173 171 167 176 185 175 170 174 159 165 162 158 174
161 169 173 174 176 174 170 165 166 168 171 172 181 169 97 26 42 98 110 133 147 164 169 166 164 163 163 150 150 160 163 162 165 158 166 158 168 172 165 169 161 156 166
161 170 175 177 178 176 173 171 169 178 178 185 184 178 172 38 102 113 116 133 147 151 160 167 174 167 151 140 143 151 148 152 157 154 136 132 138 152 151 146 149 162 165
168 174 177 179 181 177 173 174 178 184 183 184 172 182 167 83 129 120 115 127 135 140 144 147 147 142 136 134 137 135 131 130 130 131 138 138 140 164 160 158 156 147 157
174 180 179 182 181 179 175 181 185 186 185 184 175 184 151 121 136 121 114 123 127 131 135 139 140 137 130 130 131 125 121 124 125 130 135 131 135 137 142 154 153 158 160
177 182 183 185 183 181 180 185 185 185 187 183 179 175 143 137 139 127 122 121 131 132 136 138 139 134 123 120 119 113 115 118 127 128 131 129 132 133 127 140 150 159 160
181 184 187 188 186 186 183 188 184 183 189 186 179 169 146 141 139 126 123 129 132 133 137 142 149 148 144 140 131 121 121 128 131 137 132 133 132 137 129 150 144 149 144
183 186 188 191 188 187 184 190 187 185 191 189 180 172 157 149 143 133 125 136 140 132 139 165 165 168 161 153 145 143 145 141 140 139 139 137 134 128 122 128 125 120 130
196 193 190 190 186 185 184 191 190 188 193 193 187 179 167 157 143 137 130 130 141 127 99 114 152 174 161 154 163 149 140 149 145 145 138 144 135 134 130 138 141 120 126
195 191 189 189 188 184 185 191 193 191 194 196 192 186 177 170 157 145 138 134 143 139 111 98 112 133 133 130 130 136 148 146 146 145 143 143 137 134 132 140 149 137 134
195 189 190 190 187 185 187 191 195 196 191 195 195 191 187 178 174 162 147 141 145 147 137 125 118 121 130 133 128 127 140 154 154 150 150 146 137 135 137 136 140 144 140
192 188 191 191 191 189 189 193 197 191 190 192 197 195 191 185 181 174 164 157 149 153 147 144 135 127 127 132 138 132 134 132 140 144 144 141 138 136 141 144 146 151 154
204 188 191 190 193 192 195 198 193 192 192 194 199 197 193 192 188 184 178 171 164 158 153 149 149 147 141 136 136 144 153 146 145 151 150 150 151 151 153 154 153 148 149
204 199 188 193 194 195 196 200 191 189 192 196 200 200 197 194 194 193 193 188 181 178 172 163 158 155 155 156 155 152 151 155 160 164 169 172 173 172 169 167 168 170 170
207 202 196 197 198 197 197 201 198 193 194 194 200 202 202 200 199 200 199 201 202 196 189 186 181 175 171 169 165 165 166 169 174 177 178 178 178 181 184 188 190 191 189
209 207 209 202 202 201 201 200 200 199 196 195 197 202 203 202 203 204 204 205 205 202 198 198 200 193 188 183 182 180 180 182 184 186 192 194 196 197 198 201 204 206 207
Wind_Speed_850mb
72 57 40 36 32 33 39 54 69 63 54 43 37 30 24 21 25 30 31 32 32 30 29 27 23 28 28 26 24 24 24 26 24 25 21 17 16 17 17 22 18 20 20
46 33 26 24 24 25 44 61 64 57 44 35 28 22 18 22 21 26 24 21 18 22 26 23 20 25 26 24 23 25 28 27 25 21 21 15 15 15 19 22 20 21 23
35 21 19 16 22 36 50 62 56 44 35 28 22 18 17 16 19 17 13 12 15 17 20 18 18 21 21 20 19 21 31 28 28 24 16 16 14 18 15 16 17 21 20
26 19 15 16 27 35 55 57 48 37 29 24 20 14 12 12 12 10 10 13 13 14 10 13 18 16 15 15 15 22 29 28 32 29 19 17 18 13 13 15 13 18 19
13 14 16 19 31 54 60 50 39 31 27 24 17 9 7 9 9 8 12 15 12 8 6 11 11 10 12 13 19 28 30 26 28 28 25 20 20 21 17 17 23 17 17
5 16 24 35 53 62 55 44 36 30 26 21 15 4 6 6 9 12 15 16 11 9 11 10 11 12 12 15 20 24 25 22 20 23 28 18 15 17 14 27 28 27 20
18 29 40 56 69 63 51 42 35 28 23 21 12 3 4 6 12 13 16 8 7 10 15 15 13 12 11 15 19 23 22 18 15 19 29 19 9 15 14 26 35 37 33
27 36 46 55 65 57 48 40 32 25 23 20 10 3 3 9 13 11 7 2 11 17 20 17 13 13 14 15 16 20 21 19 16 18 16 19 10 18 20 27 44 39 31
35 43 50 61 60 53 45 38 30 26 25 18 11 5 3 9 10 6 10 7 16 24 21 20 15 17 16 17 15 17 17 17 16 18 18 13 8 19 15 16 32 38 26
38 46 56 61 56 47 43 33 28 25 22 15 11 6 5 8 4 11 8 9 17 25 23 21 17 13 14 13 11 15 20 13 19 22 15 10 15 26 22 28 30 18 22
45 51 55 60 52 48 44 33 32 27 21 14 10 6 3 6 5 4 4 10 17 22 24 22 15 13 13 10 9 17 17 12 19 17 13 13 20 31 25 22 25 25 34
44 51 53 57 54 50 43 34 31 26 19 13 10 6 1 4 5 6 11 14 17 20 22 23 16 11 12 11 15 17 16 18 21 18 13 17 24 27 25 18 29 33 34
45 50 51 55 53 50 42 35 30 25 19 12 12 9 3 3 6 9 11 13 18 19 22 21 15 11 12 16 16 17 18 19 22 19 22 26 26 34 20 28 31 36 41
48 53 54 53 51 49 42 36 31 26 21 15 14 10 5 5 15 13 16 19 21 22 23 24 23 20 19 21 20 17 20 23 23 23 24 21 20 24 26 26 32 34 44
50 56 58 55 54 50 43 37 33 30 24 18 14 10 9 11 19 16 20 21 22 24 25 27 26 21 20 23 26 25 24 26 30 29 27 28 28 27 23 25 34 34 50
51 54 56 57 57 52 47 42 36 34 28 20 15 13 13 17 21 17 22 21 25 28 28 25 23 24 26 29 30 23 21 26 31 33 34 29 27 29 26 28 38 33 48
56 60 63 65 59 54 50 47 40 38 32 25 18 18 19 22 27 21 20 22 22 22 20 19 20 22 24 26 19 17 17 23 31 38 39 37 31 32 28 30 31 44 50
55 59 65 67 57 53 50 47 43 41 36 31 23 24 22 24 27 21 21 20 20 18 13 12 18 22 21 18 14 11 12 23 35 38 40 38 41 37 42 54 59 58 55
61 63 65 65 58 57 54 52 48 45 41 37 30 31 27 29 28 23 21 20 22 21 18 17 22 25 28 14 11 18 25 36 38 38 42 45 46 47 40 51 58 40 38
58 59 63 66 60 59 58 56 53 50 48 41 36 33 33 31 29 23 23 23 29 30 27 32 29 27 29 27 25 24 32 37 45 43 54 48 50 45 37 37 40 44 48
60 57 62 71 67 63 62 61 58 54 49 43 40 35 37 33 29 25 23 23 29 30 28 29 32 29 30 31 32 27 32 40 45 47 46 51 45 35 32 40 43 45 46
61 61 65 71 72 67 64 64 64 53 50 47 46 40 39 37 35 30 28 28 29 32 31 30 30 31 32 31 34 37 40 47 54 54 57 46 37 34 39 40 37 36 40
59 68 70 74 76 74 68 66 59 59 55 51 50 46 41 44 39 36 34 32 31 33 34 32 33 34 33 34 36 39 40 37 46 52 47 38 33 34 37 39 40 37 38
56 70 76 79 80 82 74 60 59 60 60 57 53 53 47 50 47 41 37 35 35 35 34 32 32 35 37 37 37 38 41 41 40 39 35 31 32 34 36 39 41 36 30
52 71 81 85 87 84 81 75 65 66 66 61 57 58 54 50 54 48 46 43 36 33 35 35 34 36 37 36 34 35 37 38 38 36 34 35 36 39 42 42 41 38 31
51 68 80 82 85 85 83 79 74 70 68 68 64 63 61 57 54 56 49 45 40 34 30 26 27 32 30 32 33 33 32 32 33 37 39 39 39 40 43 44 44 42 37
Wind_Direction_850mb
291 294 288 276 265 250 229 212 204 192 194 206 221 228 239 254 274 281 281 279 274 269 266 273 259 235 230 228 235 240 235 217 209 200 203 211 204 214 223 217 212 216 208
287 294 283 264 245 231 209 201 189 187 195 209 215 221 237 260 278 286 288 283 270 262 274 267 248 226 220 226 237 240 224 205 196 190 176 168 179 201 210 207 211 212 203
281 291 282 257 223 207 198 181 176 185 195 201 204 214 245 269 294 297 302 286 280 284 275 249 228 206 219 230 234 233 205 197 188 179 174 165 178 170 181 189 207 198 185
268 270 251 221 204 190 170 171 175 183 188 191 194 215 259 279 291 299 298 298 293 298 274 216 197 205 222 224 218 194 188 197 188 180 185 179 164 169 160 161 179 170 155
261 237 207 180 169 167 168 170 176 178 183 185 192 222 280 284 309 307 307 310 293 277 193 166 191 206 202 195 188 185 189 193 196 195 187 176 175 168 160 152 154 155 171
204 165 157 155 158 164 167 172 173 175 182 183 186 223 285 294 321 309 314 307 272 212 188 171 164 170 175 184 178 179 189 194 205 210 184 147 158 171 175 162 164 161 172
153 155 158 154 161 165 170 170 171 176 176 176 177 197 322 333 323 318 322 297 217 169 154 145 157 152 165 167 174 179 181 195 196 186 189 208 178 224 205 170 161 159 159
162 162 160 161 163 168 171 169 169 169 168 169 168 164 50 347 340 329 349 186 166 155 146 146 140 136 148 160 169 183 190 190 186 184 183 167 209 215 195 185 169 154 149
165 164 165 166 169 172 172 167 163 160 163 161 159 130 50 8 353 45 64 104 152 152 151 156 140 143 145 147 150 170 177 183 184 184 192 211 224 178 174 198 180 173 136
164 165 169 172 173 173 168 161 158 155 161 159 151 144 40 21 36 62 72 99 145 155 161 163 155 155 161 159 157 162 172 190 186 182 195 176 156 152 149 158 163 144 171
165 167 172 176 173 173 167 161 161 161 166 160 165 157 44 23 51 53 63 146 148 159 171 166 162 161 174 170 161 158 173 171 167 176 185 175 170 174 159 165 162 158 174
161 169 173 174 176 174 170 165 166 168 171 172 181 169 97 26 42 98 110 133 147 164 169 166 164 163 163 150 150 160 163 162 165 158 166 158 168 172 165 169 161 156 166
161 170 175 177 178 176 173 171 169 178 178 185 184 178 172 38 102 113 116 133 147 151 160 167 174 167 151 140 143 151 148 152 157 154 136 132 138 152 151 146 149 162 165
168 174 177 179 181 177 173 174 178 184 183 184 172 182 167 83 129 120 115 127 135 140 144 147 147 142 136 134 137 135 131 130 130 131 138 138 140 164 160 158 156 147 157
174 180 179 182 181 179 175 181 185 186 185 184 175 184 151 121 136 121 114 123 127 131 135 139 140 137 130 130 131 125 121 124 125 130 135 131 135 137 142 154 153 158 160
177 182 183 185 183 181 180 185 185 185 187 183 179 175 143 137 139 127 122 121 131 132 136 138 139 134 123 120 119 113 115 118 127 128 131 129 132 133 127 140 150 159 160
181 184 187 188 186 186 183 188 184 183 189 186 179 169 146 141 139 126 123 129 132 133 137 142 149 148 144 140 131 121 121 128 131 137 132 133 132 137 129 150 144 149 144
183 186 188 191 188 187 184 190 187 185 191 189 180 172 157 149 143 133 125 136 140 132 139 165 165 168 161 153 145 143 145 141 140 139 139 137 134 128 122 128 125 120 130
196 193 190 190 186 185 184 191 190 188 193 193 187 179 167 157 143 137 130 130 141 127 99 114 152 174 161 154 163 149 140 149 145 145 138 144 135 134 130 138 141 120 126
195 191 189 189 188 184 185 191 193 191 194 196 192 186 177 170 157 145 138 134 143 139 111 98 112 133 133 130 130 136 148 146 146 145 143 143 137 134 132 140 149 137 134
195 189 190 190 187 185 187 191 195 196 191 195 195 191 187 178 174 162 147 141 145 147 137 125 118 121 130 133 128 127 140 154 154 150 150 146 137 135 137 136 140 144 140
192 188 191 191 191 189 189 193 197 191 190 192 197 195 191 185 181 174 164 157 149 153 147 144 135 127 127 132 138 132 134 132 140 144 144 141 138 136 141 144 146 151 154
204 188 191 190 193 192 195 198 193 192 192 194 199 197 193 192 188 184 178 171 164 158 153 149 149 147 141 136 136 144 153 146 145 151 150 150 151 151 153 154 153 148 149
204 199 188 193 194 195 196 200 191 189 192 196 200 200 197 194 194 193 193 188 181 178 172 163 158 155 155 156 155 152 151 155 160 164 169 172 173 172 169 167 168 170 170
207 202 196 197 198 197 197 201 198 193 194 194 200 202 202 200 199 200 199 201 202 196 189 186 181 175 171 169 165 165 166 169 174 177 178 178 178 181 184 188 190 191 189
209 207 209 202 202 201 201 200 200 199 196 195 197 202 203 202 203 204 204 205 205 202 198 198 200 193 188 183 182 180 180 182 184 186 192 194 196 197 198 201 204 206 207